Weather History for Lancaster, CA

Change the Weather History Date:

Monday, August 12, 2013

  Actual Average Record
Temperature  
Mean Temperature 81 °F 82 °F  
Max Temperature 99 °F 98 °F 109 °F (2002)
Min Temperature 62 °F 65 °F 50 °F (1956)
Degree Days  
Heating Degree Days 0    
Month to date heating degree days 0  
Since 1 June heating degree days 0  
Since 1 July heating degree days 0  
Cooling Degree Days 16    
Month to date cooling degree days 173  
Year to date cooling degree days 1525  
Since 1 June cooling degree days 1267  
Growing Degree Days 30 (Base 50)    
Moisture  
Dew Point 40 °F    
Average Humidity 32    
Maximum Humidity 52    
Minimum Humidity 11    
Precipitation  
Precipitation 0.00 in 0.01 in 0.04 in (1965)
Month to date precipitation 0.00 0.04  
Year to date precipitation 1.12 5.04  
Since 1 July precipitation 0.02 0.13  
Snow  
Snow 0.00 in - 0.00 in ()
Month to date snowfall 0.0  
Since 1 June snowfall 0.0  
Since 1 July snowfall 0.0  
Snow Depth 0.00 in    
Sea Level Pressure  
Sea Level Pressure 29.90 in    
Wind  
Wind Speed 9 mph (WSW)    
Max Wind Speed 28 mph    
Max Gust Speed 33 mph    
Visibility 10 miles    
Events      
T = Trace of Precipitation, MM = Missing Value Source: NWS Daily Summary

Daily Weather History Graph

Daily Weather History Graph

Search for Another Location

Airport:

Trip Planner

Search our weather history database for the weather conditions in past years. The results will help you decide how hot, cold, wet, or windy it might be!

Date:

Astronomy

Aug. 12, 2013 Rise Set
Actual Time 6:11 AM PDT 7:43 PM PDT
Civil Twilight 5:44 AM PDT 8:10 PM PDT
Nautical Twilight 5:12 AM PDT 8:42 PM PDT
Astronomical Twilight 4:38 AM PDT 9:16 PM PDT
Moon 11:50 AM PDT (8/12) 10:57 PM PDT (8/12)
Length of Visible Light 14h 26m
Length of Day
13h 32m
Waxing Crescent, 32% of the Moon is Illuminated
Aug 12
Waxing Crescent
Aug 14
First Quarter
Aug 20
Full
Aug 28
Last Quarter
Sep 5
New

Hourly Weather History & Observations

Time (PDT) Temp. Dew Point Humidity Pressure Visibility Wind Dir Wind Speed Gust Speed Precip Events Conditions
12:56 AM 73.9 °F 39.9 °F 29% 29.89 in 10.0 mi West 10.4 mph - N/A   Clear
1:56 AM 72.0 °F 41.0 °F 33% 29.89 in 10.0 mi Calm Calm - N/A   Clear
2:56 AM 71.1 °F 42.1 °F 35% 29.88 in 10.0 mi West 4.6 mph - N/A   Clear
3:56 AM 70.0 °F 44.1 °F 39% 29.88 in 10.0 mi West 4.6 mph - N/A   Clear
4:56 AM 66.9 °F 44.1 °F 44% 29.89 in 10.0 mi West 6.9 mph - N/A   Clear
5:56 AM 63.0 °F 44.1 °F 50% 29.91 in 10.0 mi Calm Calm - N/A   Clear
6:56 AM 64.9 °F 44.1 °F 47% 29.92 in 10.0 mi Calm Calm - N/A   Clear
7:56 AM 73.0 °F 42.1 °F 33% 29.94 in 10.0 mi Calm Calm - N/A   Clear
8:56 AM 78.1 °F 41.0 °F 27% 29.94 in 10.0 mi South 3.5 mph - N/A   Clear
9:56 AM 82.9 °F 41.0 °F 23% 29.94 in 10.0 mi SW 3.5 mph - N/A   Clear
10:56 AM 87.1 °F 39.0 °F 18% 29.94 in 10.0 mi Calm Calm - N/A   Clear
11:56 AM 90.0 °F 37.9 °F 16% 29.92 in 10.0 mi WSW 4.6 mph - N/A   Clear
12:56 PM 93.9 °F 34.0 °F 12% 29.89 in 10.0 mi East 5.8 mph - N/A   Clear
1:56 PM 96.1 °F 33.1 °F 11% 29.87 in 10.0 mi Calm Calm - N/A   Clear
2:56 PM 97.0 °F 33.1 °F 11% 29.86 in 10.0 mi SSW 8.1 mph - N/A   Clear
3:56 PM 97.0 °F 36.0 °F 12% 29.85 in 10.0 mi West 5.8 mph - N/A   Clear
4:56 PM 96.1 °F 41.0 °F 15% 29.85 in 10.0 mi WSW 18.4 mph 24.2 mph N/A   Clear
5:56 PM 93.0 °F 42.1 °F 17% 29.86 in 10.0 mi WSW 19.6 mph - N/A   Clear
6:56 PM 89.1 °F 36.0 °F 15% 29.87 in 10.0 mi West 23.0 mph - N/A   Clear
7:56 PM 82.9 °F 41.0 °F 23% 29.88 in 10.0 mi West 24.2 mph - N/A   Clear
8:56 PM 81.0 °F 37.0 °F 21% 29.91 in 10.0 mi West 16.1 mph - N/A   Clear
9:56 PM 79.0 °F 39.0 °F 24% 29.91 in 10.0 mi West 15.0 mph - N/A   Clear
10:56 PM 79.0 °F 37.9 °F 23% 29.91 in 10.0 mi West 15.0 mph - N/A   Clear
11:56 PM 78.1 °F 39.0 °F 25% 29.90 in 10.0 mi West 13.8 mph - N/A   Clear